Wetterdaten: Donnerstag, 23.08.2012
Datum Zeit Temperatur Luftfeuchte Regen Wind Richtung Richtung Taupunkt Windchill Windben
23.08.2012 00:00 16,9 C 86 % 0,0 l/m 0,0 km/h (0 Bft) S-SO 157 14,5 C 16,5 C 0,0 km/h (0 Bft)
23.08.2012 00:05 16,9 C 86 % 0,0 l/m 0,0 km/h (0 Bft) N-NO 22 14,5 C 16,4 C 0,0 km/h (0 Bft)
23.08.2012 00:10 17,0 C 86 % 0,0 l/m 0,0 km/h (0 Bft) N-NO 22 14,6 C 16,5 C 0,0 km/h (0 Bft)
23.08.2012 00:15 17,5 C 86 % 0,0 l/m 0,0 km/h (0 Bft) W 270 15,1 C 16,7 C 0,0 km/h (0 Bft)
23.08.2012 00:20 17,6 C 86 % 0,0 l/m 0,0 km/h (0 Bft) N-NO 22 15,2 C 16,8 C 0,0 km/h (0 Bft)
23.08.2012 00:25 17,6 C 86 % 0,0 l/m 0,0 km/h (0 Bft) W-SW 247 15,2 C 17,1 C 0,0 km/h (0 Bft)
23.08.2012 00:30 17,5 C 86 % 0,0 l/m 0,0 km/h (0 Bft) W-NW 292 15,1 C 17,2 C 0,0 km/h (0 Bft)
23.08.2012 00:35 17,7 C 87 % 0,0 l/m 0,3 km/h (0 Bft) N-NO 22 15,5 C 17,3 C 3,2 km/h (1 Bft)
23.08.2012 00:40 18,2 C 87 % 0,0 l/m 0,5 km/h (0 Bft) O-SO 112 16,0 C 17,6 C 0,0 km/h (0 Bft)
23.08.2012 00:45 18,2 C 86 % 0,0 l/m 2,4 km/h (1 Bft) S 180 15,8 C 17,9 C 8,0 km/h (2 Bft)
23.08.2012 00:50 17,7 C 86 % 0,0 l/m 2,6 km/h (1 Bft) N 360 15,3 C 17,6 C 3,1 km/h (1 Bft)
23.08.2012 00:55 17,9 C 88 % 0,0 l/m 1,6 km/h (1 Bft) N-NO 22 15,9 C 17,5 C 2,4 km/h (1 Bft)
23.08.2012 01:00 17,9 C 89 % 0,0 l/m 1,3 km/h (1 Bft) N-NO 22 16,1 C 17,5 C 0,0 km/h (0 Bft)
23.08.2012 01:05 17,7 C 89 % 0,0 l/m 0,6 km/h (0 Bft) O-SO 112 15,9 C 17,5 C 1,6 km/h (1 Bft)
23.08.2012 01:10 17,7 C 90 % 0,0 l/m 0,2 km/h (0 Bft) N 360 16,0 C 17,5 C 2,6 km/h (1 Bft)
23.08.2012 01:15 17,6 C 90 % 0,0 l/m 0,6 km/h (0 Bft) SW 225 15,9 C 17,5 C 2,4 km/h (1 Bft)
23.08.2012 01:20 17,6 C 90 % 0,0 l/m 0,5 km/h (0 Bft) N-NW 337 15,9 C 17,5 C 0,0 km/h (0 Bft)
23.08.2012 01:25 17,6 C 91 % 0,0 l/m 0,5 km/h (0 Bft) N-NW 337 16,1 C 17,4 C 1,9 km/h (1 Bft)
23.08.2012 01:30 17,6 C 91 % 0,0 l/m 1,3 km/h (1 Bft) W-NW 292 16,1 C 17,4 C 2,1 km/h (1 Bft)
23.08.2012 01:35 17,5 C 91 % 0,0 l/m 1,3 km/h (1 Bft) O-SO 112 16,0 C 17,4 C 1,6 km/h (1 Bft)
23.08.2012 01:40 17,5 C 91 % 0,0 l/m 2,1 km/h (1 Bft) S 180 16,0 C 17,3 C 7,7 km/h (2 Bft)
23.08.2012 01:45 17,3 C 91 % 0,0 l/m 4,0 km/h (1 Bft) O-SO 112 15,8 C 17,2 C 9,8 km/h (2 Bft)
23.08.2012 01:50 17,6 C 91 % 0,0 l/m 4,7 km/h (1 Bft) S-SO 157 16,1 C 17,3 C 9,0 km/h (2 Bft)
23.08.2012 01:55 17,5 C 91 % 0,0 l/m 5,6 km/h (1 Bft) S-SO 157 16,0 C 17,4 C 13,5 km/h (3 Bft)
23.08.2012 02:00 17,4 C 91 % 0,0 l/m 5,3 km/h (1 Bft) S-SO 157 15,9 C 17,4 C 2,4 km/h (1 Bft)
23.08.2012 02:05 17,1 C 91 % 0,7 l/m 1,9 km/h (1 Bft) N 360 15,6 C 17,2 C 2,6 km/h (1 Bft)
23.08.2012 02:10 16,9 C 91 % 0,0 l/m 1,8 km/h (1 Bft) N 360 15,4 C 17,0 C 6,6 km/h (2 Bft)
23.08.2012 02:15 16,8 C 91 % 0,0 l/m 2,3 km/h (1 Bft) N 360 15,3 C 16,7 C 5,6 km/h (1 Bft)
23.08.2012 02:20 16,7 C 91 % 0,0 l/m 2,6 km/h (1 Bft) S-SO 157 15,2 C 16,6 C 0,0 km/h (0 Bft)
23.08.2012 02:25 16,5 C 92 % 0,0 l/m 1,3 km/h (1 Bft) W-SW 247 15,2 C 16,4 C 0,0 km/h (0 Bft)
23.08.2012 02:30 16,4 C 92 % 0,0 l/m 0,3 km/h (0 Bft) W-SW 247 15,1 C 16,4 C 0,0 km/h (0 Bft)
23.08.2012 02:35 16,4 C 92 % 0,0 l/m 0,2 km/h (0 Bft) W-SW 247 15,1 C 16,3 C 0,0 km/h (0 Bft)
23.08.2012 02:40 16,4 C 92 % 0,0 l/m 0,0 km/h (0 Bft) O 90 15,1 C 16,2 C 0,0 km/h (0 Bft)
23.08.2012 02:45 16,2 C 92 % 0,0 l/m 0,0 km/h (0 Bft) N 360 14,9 C 16,1 C 0,0 km/h (0 Bft)
23.08.2012 02:50 16,2 C 92 % 0,0 l/m 0,2 km/h (0 Bft) N-NO 22 14,9 C 16,0 C 0,0 km/h (0 Bft)
23.08.2012 02:55 16,3 C 92 % 0,0 l/m 0,5 km/h (0 Bft) N-NO 22 15,0 C 16,0 C 1,9 km/h (1 Bft)
23.08.2012 03:00 16,2 C 92 % 0,0 l/m 0,6 km/h (0 Bft) W-NW 292 14,9 C 16,1 C 2,6 km/h (1 Bft)
23.08.2012 03:05 16,3 C 92 % 0,0 l/m 1,1 km/h (1 Bft) N-NO 22 15,0 C 16,2 C 0,0 km/h (0 Bft)
23.08.2012 03:10 16,4 C 92 % 0,0 l/m 1,0 km/h (0 Bft) NO 45 15,1 C 16,2 C 2,1 km/h (1 Bft)
23.08.2012 03:15 16,4 C 92 % 0,0 l/m 0,8 km/h (0 Bft) W-NW 292 15,1 C 16,2 C 2,3 km/h (1 Bft)
23.08.2012 03:20 16,1 C 92 % 0,0 l/m 0,8 km/h (0 Bft) SO 135 14,8 C 16,1 C 0,0 km/h (0 Bft)
23.08.2012 03:25 16,0 C 92 % 0,0 l/m 0,6 km/h (0 Bft) N-NW 337 14,7 C 15,9 C 2,9 km/h (1 Bft)
23.08.2012 03:30 16,0 C 92 % 0,0 l/m 0,5 km/h (0 Bft) N-NO 22 14,7 C 15,8 C 0,0 km/h (0 Bft)
23.08.2012 03:35 15,9 C 94 % 0,0 l/m 1,1 km/h (1 Bft) N-NW 337 14,9 C 15,8 C 4,0 km/h (1 Bft)
23.08.2012 03:40 15,7 C 93 % 0,0 l/m 1,1 km/h (1 Bft) NO 45 14,6 C 15,7 C 0,0 km/h (0 Bft)
23.08.2012 03:45 15,7 C 93 % 0,0 l/m 0,5 km/h (0 Bft) NO 45 14,6 C 15,5 C 0,0 km/h (0 Bft)
23.08.2012 03:50 15,7 C 93 % 0,0 l/m 0,0 km/h (0 Bft) N 360 14,6 C 15,5 C 0,0 km/h (0 Bft)
23.08.2012 03:55 15,6 C 94 % 0,0 l/m 1,0 km/h (0 Bft) N 360 14,6 C 15,5 C 0,0 km/h (0 Bft)
23.08.2012 04:00 15,5 C 94 % 0,0 l/m 1,0 km/h (0 Bft) N-NO 22 14,5 C 15,3 C 0,0 km/h (0 Bft)
23.08.2012 04:05 15,1 C 93 % 0,0 l/m 0,0 km/h (0 Bft) W 270 14,0 C 15,1 C 1,8 km/h (1 Bft)
23.08.2012 04:10 15,3 C 94 % 0,0 l/m 0,2 km/h (0 Bft) NO 45 14,3 C 15,0 C 0,0 km/h (0 Bft)
23.08.2012 04:15 15,3 C 94 % 0,0 l/m 0,5 km/h (0 Bft) N 360 14,3 C 15,0 C 2,4 km/h (1 Bft)
23.08.2012 04:20 15,1 C 93 % 0,0 l/m 0,5 km/h (0 Bft) W 270 14,0 C 15,0 C 0,0 km/h (0 Bft)
23.08.2012 04:25 15,2 C 94 % 0,0 l/m 0,3 km/h (0 Bft) N-NO 22 14,2 C 15,0 C 0,0 km/h (0 Bft)
23.08.2012 04:30 15,2 C 94 % 0,0 l/m 0,5 km/h (0 Bft) N 360 14,2 C 14,9 C 0,0 km/h (0 Bft)
23.08.2012 04:35 14,9 C 94 % 0,0 l/m 0,6 km/h (0 Bft) N 360 13,9 C 14,9 C 0,0 km/h (0 Bft)
23.08.2012 04:40 14,9 C 94 % 0,0 l/m 0,3 km/h (0 Bft) N 360 13,9 C 14,8 C 1,8 km/h (1 Bft)
23.08.2012 04:45 15,1 C 94 % 0,0 l/m 0,3 km/h (0 Bft) N-NW 337 14,1 C 14,8 C 1,9 km/h (1 Bft)
23.08.2012 04:50 14,9 C 94 % 0,0 l/m 0,5 km/h (0 Bft) W-NW 292 13,9 C 14,9 C 0,0 km/h (0 Bft)
23.08.2012 04:55 14,9 C 94 % 0,0 l/m 0,5 km/h (0 Bft) S 180 13,9 C 14,9 C 0,0 km/h (0 Bft)
23.08.2012 05:00 15,0 C 94 % 0,0 l/m 0,6 km/h (0 Bft) S-SW 202 14,0 C 14,9 C 3,4 km/h (1 Bft)
23.08.2012 05:05 15,2 C 94 % 0,0 l/m 0,6 km/h (0 Bft) N-NW 337 14,2 C 15,0 C 0,0 km/h (0 Bft)
23.08.2012 05:10 15,3 C 94 % 0,0 l/m 0,6 km/h (0 Bft) NW 315 14,3 C 15,1 C 1,9 km/h (1 Bft)
23.08.2012 05:15 15,1 C 94 % 0,0 l/m 0,8 km/h (0 Bft) O-SO 112 14,1 C 15,1 C 2,9 km/h (1 Bft)
23.08.2012 05:20 15,1 C 94 % 0,0 l/m 1,6 km/h (1 Bft) SO 135 14,1 C 15,0 C 2,1 km/h (1 Bft)
23.08.2012 05:25 15,1 C 94 % 0,0 l/m 2,4 km/h (1 Bft) O-NO 67 14,1 C 15,0 C 3,1 km/h (1 Bft)
23.08.2012 05:30 15,1 C 94 % 0,0 l/m 1,6 km/h (1 Bft) N 360 14,1 C 15,0 C 0,0 km/h (0 Bft)
23.08.2012 05:35 15,2 C 94 % 0,0 l/m 1,3 km/h (1 Bft) O-NO 67 14,2 C 15,0 C 2,4 km/h (1 Bft)
23.08.2012 05:40 15,4 C 94 % 0,0 l/m 3,1 km/h (1 Bft) O-SO 112 14,4 C 15,1 C 10,0 km/h (2 Bft)
23.08.2012 05:45 15,6 C 94 % 0,0 l/m 4,0 km/h (1 Bft) S 180 14,6 C 15,4 C 0,0 km/h (0 Bft)
23.08.2012 05:50 15,8 C 94 % 0,0 l/m 4,0 km/h (1 Bft) SO 135 14,8 C 15,6 C 6,4 km/h (2 Bft)
23.08.2012 05:55 15,7 C 94 % 0,0 l/m 5,1 km/h (1 Bft) N 360 14,7 C 15,6 C 4,2 km/h (1 Bft)
23.08.2012 06:00 15,6 C 94 % 0,7 l/m 4,2 km/h (1 Bft) S-SW 202 14,6 C 15,6 C 2,1 km/h (1 Bft)
23.08.2012 06:05 15,6 C 94 % 0,0 l/m 1,4 km/h (1 Bft) NO 45 14,6 C 15,5 C 2,3 km/h (1 Bft)
23.08.2012 06:10 15,5 C 94 % 0,0 l/m 1,3 km/h (1 Bft) N 360 14,5 C 15,4 C 3,7 km/h (1 Bft)
23.08.2012 06:15 15,5 C 94 % 0,0 l/m 1,4 km/h (1 Bft) N 360 14,5 C 15,4 C 0,0 km/h (0 Bft)
23.08.2012 06:20 15,5 C 94 % 0,0 l/m 1,4 km/h (1 Bft) S 180 14,5 C 15,4 C 3,2 km/h (1 Bft)
23.08.2012 06:25 15,5 C 94 % 0,0 l/m 1,6 km/h (1 Bft) N 360 14,5 C 15,4 C 2,3 km/h (1 Bft)
23.08.2012 06:30 15,5 C 94 % 0,0 l/m 1,6 km/h (1 Bft) N 360 14,5 C 15,4 C 1,8 km/h (1 Bft)
23.08.2012 06:35 15,5 C 94 % 0,0 l/m 1,0 km/h (0 Bft) W 270 14,5 C 15,4 C 0,0 km/h (0 Bft)
23.08.2012 06:40 15,5 C 94 % 0,0 l/m 1,0 km/h (0 Bft) W 270 14,5 C 15,5 C 3,9 km/h (1 Bft)
23.08.2012 06:45 15,8 C 94 % 0,0 l/m 1,3 km/h (1 Bft) W-NW 292 14,8 C 15,6 C 3,4 km/h (1 Bft)
23.08.2012 06:50 15,8 C 94 % 0,0 l/m 2,1 km/h (1 Bft) W-SW 247 14,8 C 15,7 C 1,9 km/h (1 Bft)
23.08.2012 06:55 15,7 C 94 % 0,0 l/m 3,4 km/h (1 Bft) W 270 14,7 C 15,6 C 6,8 km/h (2 Bft)
23.08.2012 07:00 15,7 C 94 % 0,0 l/m 3,4 km/h (1 Bft) W-SW 247 14,7 C 15,6 C 2,3 km/h (1 Bft)
23.08.2012 07:05 15,7 C 94 % 0,0 l/m 2,7 km/h (1 Bft) NW 315 14,7 C 15,7 C 2,7 km/h (1 Bft)
23.08.2012 07:10 15,7 C 94 % 0,0 l/m 2,1 km/h (1 Bft) W 270 14,7 C 15,7 C 1,6 km/h (1 Bft)
23.08.2012 07:15 15,7 C 94 % 0,0 l/m 2,3 km/h (1 Bft) W-NW 292 14,7 C 15,6 C 4,8 km/h (1 Bft)
23.08.2012 07:20 15,7 C 94 % 0,0 l/m 2,7 km/h (1 Bft) W 270 14,7 C 15,7 C 4,2 km/h (1 Bft)
23.08.2012 07:25 15,8 C 94 % 0,0 l/m 2,7 km/h (1 Bft) W-SW 247 14,8 C 15,8 C 1,9 km/h (1 Bft)
23.08.2012 07:30 15,9 C 94 % 0,0 l/m 1,6 km/h (1 Bft) NW 315 14,9 C 15,8 C 0,0 km/h (0 Bft)
23.08.2012 07:35 16,2 C 93 % 0,0 l/m 0,2 km/h (0 Bft) SO 135 15,1 C 16,0 C 0,0 km/h (0 Bft)
23.08.2012 07:40 16,4 C 93 % 0,0 l/m 1,0 km/h (0 Bft) S 180 15,3 C 16,4 C 4,2 km/h (1 Bft)
23.08.2012 07:45 16,1 C 93 % 0,0 l/m 3,9 km/h (1 Bft) O-NO 67 15,0 C 16,3 C 6,0 km/h (2 Bft)
23.08.2012 07:50 15,9 C 94 % 0,0 l/m 5,8 km/h (2 Bft) O-SO 112 14,9 C 16,1 C 6,1 km/h (2 Bft)
23.08.2012 07:55 15,9 C 94 % 2,1 l/m 4,0 km/h (1 Bft) N-NO 22 14,9 C 16,0 C 0,0 km/h (0 Bft)
23.08.2012 08:00 15,9 C 94 % 0,7 l/m 2,6 km/h (1 Bft) N 360 14,9 C 15,9 C 4,3 km/h (1 Bft)
23.08.2012 08:05 15,9 C 94 % 0,0 l/m 1,6 km/h (1 Bft) NO 45 14,9 C 15,9 C 0,0 km/h (0 Bft)
23.08.2012 08:10 16,0 C 93 % 0,0 l/m 1,3 km/h (1 Bft) N 360 14,9 C 15,9 C 0,0 km/h (0 Bft)
23.08.2012 08:15 16,1 C 93 % 0,0 l/m 0,8 km/h (0 Bft) W 270 15,0 C 16,0 C 3,1 km/h (1 Bft)
23.08.2012 08:20 16,3 C 93 % 0,0 l/m 1,3 km/h (1 Bft) S 180 15,2 C 16,1 C 2,4 km/h (1 Bft)
23.08.2012 08:25 18,6 C 93 % 0,0 l/m 1,8 km/h (1 Bft) W-SW 247 17,4 C 16,8 C 0,0 km/h (0 Bft)
23.08.2012 08:30 18,8 C 93 % 0,0 l/m 1,8 km/h (1 Bft) S-SW 202 17,6 C 18,2 C 2,4 km/h (1 Bft)
23.08.2012 08:35 18,5 C 93 % 0,0 l/m 1,0 km/h (0 Bft) N 360 17,3 C 19,1 C 0,0 km/h (0 Bft)
23.08.2012 08:40 19,3 C 92 % 0,0 l/m 0,6 km/h (0 Bft) N-NW 337 18,0 C 19,3 C 2,1 km/h (1 Bft)
23.08.2012 08:45 19,7 C 91 % 0,0 l/m 1,8 km/h (1 Bft) N-NO 22 18,4 C 20,8 C 3,4 km/h (1 Bft)
23.08.2012 08:50 19,6 C 88 % 0,0 l/m 3,2 km/h (1 Bft) W-NW 292 18,8 C 21,3 C 7,7 km/h (2 Bft)
23.08.2012 08:55 20,1 C 86 % 0,0 l/m 3,5 km/h (1 Bft) S-SW 202 19,4 C 22,4 C 0,0 km/h (0 Bft)
23.08.2012 09:00 20,5 C 83 % 0,0 l/m 3,1 km/h (1 Bft) S-SO 157 19,3 C 23,4 C 1,6 km/h (1 Bft)
23.08.2012 09:05 20,8 C 81 % 0,0 l/m 1,3 km/h (1 Bft) S 180 18,8 C 24,8 C 0,0 km/h (0 Bft)
23.08.2012 09:10 21,1 C 79 % 0,0 l/m 1,1 km/h (1 Bft) N 360 18,8 C 25,5 C 1,6 km/h (1 Bft)
23.08.2012 09:15 21,4 C 79 % 0,0 l/m 1,3 km/h (1 Bft) N 360 19,3 C 26,1 C 0,0 km/h (0 Bft)
23.08.2012 09:20 21,6 C 79 % 0,0 l/m 1,1 km/h (1 Bft) SW 225 19,8 C 26,6 C 0,0 km/h (0 Bft)
23.08.2012 09:25 21,9 C 77 % 0,0 l/m 0,6 km/h (0 Bft) N-NW 337 18,7 C 27,4 C 0,0 km/h (0 Bft)
23.08.2012 09:30 22,1 C 79 % 0,0 l/m 0,5 km/h (0 Bft) O-NO 67 19,1 C 27,6 C 0,0 km/h (0 Bft)
23.08.2012 09:35 22,5 C 77 % 0,0 l/m 0,6 km/h (0 Bft) W 270 19,3 C 28,2 C 3,1 km/h (1 Bft)
23.08.2012 09:40 22,7 C 74 % 0,0 l/m 1,0 km/h (0 Bft) N-NO 22 18,6 C 28,4 C 0,0 km/h (0 Bft)
23.08.2012 09:45 21,2 C 82 % 0,0 l/m 0,6 km/h (0 Bft) N-NO 22 18,0 C 27,2 C 0,0 km/h (0 Bft)
23.08.2012 09:50 20,1 C 83 % 0,0 l/m 0,0 km/h (0 Bft) O-NO 67 17,1 C 25,6 C 0,0 km/h (0 Bft)
23.08.2012 09:55 22,1 C 80 % 0,0 l/m 0,0 km/h (0 Bft) N-NO 22 18,8 C 24,8 C 0,0 km/h (0 Bft)
23.08.2012 10:00 22,3 C 82 % 0,0 l/m 0,0 km/h (0 Bft) N-NO 22 19,2 C 25,8 C 0,0 km/h (0 Bft)
23.08.2012 10:05 22,6 C 79 % 0,0 l/m 0,3 km/h (0 Bft) NO 45 19,3 C 27,4 C 0,0 km/h (0 Bft)
23.08.2012 10:10 23,3 C 75 % 0,0 l/m 0,6 km/h (0 Bft) N 360 18,9 C 27,9 C 2,1 km/h (1 Bft)
23.08.2012 10:15 22,4 C 79 % 0,0 l/m 1,3 km/h (1 Bft) N-NO 22 18,6 C 27,1 C 0,0 km/h (0 Bft)
23.08.2012 10:20 23,2 C 77 % 0,0 l/m 1,3 km/h (1 Bft) N 360 19,7 C 27,3 C 0,0 km/h (0 Bft)
23.08.2012 10:25 23,6 C 75 % 0,0 l/m 0,2 km/h (0 Bft) S 180 19,6 C 28,4 C 1,6 km/h (1 Bft)
23.08.2012 10:30 24,4 C 75 % 0,0 l/m 1,1 km/h (1 Bft) O-SO 112 20,2 C 28,9 C 1,6 km/h (1 Bft)
23.08.2012 10:35 23,9 C 71 % 0,0 l/m 2,1 km/h (1 Bft) W 270 18,3 C 29,1 C 6,3 km/h (2 Bft)
23.08.2012 10:40 24,7 C 74 % 0,0 l/m 2,4 km/h (1 Bft) W-SW 247 20,0 C 29,0 C 4,8 km/h (1 Bft)
23.08.2012 10:45 24,8 C 71 % 0,0 l/m 3,1 km/h (1 Bft) N-NO 22 19,2 C 28,6 C 0,0 km/h (0 Bft)
23.08.2012 10:50 25,1 C 71 % 0,0 l/m 2,1 km/h (1 Bft) SW 225 19,7 C 29,4 C 4,2 km/h (1 Bft)
23.08.2012 10:55 25,2 C 65 % 0,0 l/m 1,6 km/h (1 Bft) N-NW 337 18,1 C 29,4 C 2,6 km/h (1 Bft)
23.08.2012 11:00 24,9 C 69 % 0,0 l/m 2,6 km/h (1 Bft) W-NW 292 18,8 C 29,4 C 6,1 km/h (2 Bft)
23.08.2012 11:05 25,5 C 66 % 0,0 l/m 3,5 km/h (1 Bft) W-SW 247 18,8 C 28,8 C 0,0 km/h (0 Bft)
23.08.2012 11:11 25,6 C 66 % 0,0 l/m 2,9 km/h (1 Bft) N 0 18,8 C 29,5 C 1,8 km/h (1 Bft)
23.08.2012 11:15 26,3 C 66 % 0,0 l/m 1,9 km/h (1 Bft) N 0 19,4 C 29,8 C 4,8 km/h (1 Bft)
23.08.2012 11:20 25,6 C 63 % 0,0 l/m 2,9 km/h (1 Bft) NW 315 18,0 C 29,8 C 3,1 km/h (1 Bft)
23.08.2012 11:25 25,4 C 57 % 0,0 l/m 2,1 km/h (1 Bft) N-NW 337 16,2 C 29,9 C 0,0 km/h (0 Bft)
23.08.2012 11:30 25,4 C 59 % 0,0 l/m 2,1 km/h (1 Bft) W-SW 247 16,8 C 29,8 C 4,7 km/h (1 Bft)
23.08.2012 11:31 25,4 C 59 % 0,0 l/m 2,1 km/h (1 Bft) W-SW 247 16,8 C 29,8 C 4,7 km/h (1 Bft)
23.08.2012 11:32 25,4 C 59 % 0,0 l/m 2,1 km/h (1 Bft) W-SW 247 16,8 C 29,8 C 4,7 km/h (1 Bft)
23.08.2012 11:33 25,8 C 55 % 0,0 l/m 2,3 km/h (1 Bft) N-NW 337 16,1 C 29,9 C 3,4 km/h (1 Bft)
23.08.2012 11:34 25,8 C 55 % 0,0 l/m 2,3 km/h (1 Bft) N-NW 337 16,1 C 29,9 C 3,4 km/h (1 Bft)
23.08.2012 11:36 25,8 C 55 % 0,0 l/m 2,3 km/h (1 Bft) N-NW 337 16,1 C 29,9 C 3,4 km/h (1 Bft)
23.08.2012 11:40 26,1 C 49 % 0,0 l/m 2,4 km/h (1 Bft) SO 135 14,5 C 30,0 C 2,9 km/h (1 Bft)
23.08.2012 11:45 25,9 C 51 % 0,0 l/m 1,9 km/h (1 Bft) O 90 15,0 C 30,6 C 4,0 km/h (1 Bft)
23.08.2012 11:50 26,4 C 50 % 0,0 l/m 1,9 km/h (1 Bft) W-SW 247 15,1 C 30,4 C 4,3 km/h (1 Bft)
23.08.2012 11:55 26,6 C 51 % 0,0 l/m 2,6 km/h (1 Bft) W 270 15,6 C 30,3 C 3,7 km/h (1 Bft)
23.08.2012 12:00 26,8 C 51 % 0,0 l/m 2,7 km/h (1 Bft) N 360 15,8 C 30,0 C 5,0 km/h (1 Bft)
23.08.2012 12:05 27,6 C 54 % 0,0 l/m 3,1 km/h (1 Bft) SW 225 17,4 C 30,0 C 3,4 km/h (1 Bft)
23.08.2012 12:10 27,5 C 54 % 0,0 l/m 2,9 km/h (1 Bft) W 270 17,3 C 30,0 C 6,1 km/h (2 Bft)
23.08.2012 12:15 26,9 C 53 % 0,0 l/m 3,9 km/h (1 Bft) SW 225 16,5 C 29,5 C 6,3 km/h (2 Bft)
23.08.2012 12:20 26,8 C 52 % 0,0 l/m 5,1 km/h (1 Bft) S-SW 202 16,1 C 29,0 C 3,9 km/h (1 Bft)
23.08.2012 12:25 27,3 C 53 % 0,0 l/m 5,0 km/h (1 Bft) N-NW 337 16,9 C 28,6 C 5,5 km/h (1 Bft)
23.08.2012 12:30 27,1 C 50 % 0,0 l/m 4,5 km/h (1 Bft) NW 315 15,8 C 28,6 C 5,5 km/h (1 Bft)
23.08.2012 12:35 26,9 C 50 % 0,0 l/m 3,5 km/h (1 Bft) N 360 15,6 C 28,9 C 2,6 km/h (1 Bft)
23.08.2012 12:40 27,5 C 52 % 0,0 l/m 2,3 km/h (1 Bft) S-SW 202 16,7 C 29,4 C 5,8 km/h (2 Bft)
23.08.2012 12:45 27,7 C 52 % 0,0 l/m 2,9 km/h (1 Bft) N 360 16,9 C 29,4 C 5,8 km/h (2 Bft)
23.08.2012 12:50 27,2 C 54 % 0,0 l/m 4,2 km/h (1 Bft) SO 135 17,1 C 29,2 C 5,1 km/h (1 Bft)
23.08.2012 12:55 27,1 C 54 % 0,0 l/m 3,5 km/h (1 Bft) W-SW 247 17,0 C 29,3 C 4,5 km/h (1 Bft)
23.08.2012 13:00 27,6 C 55 % 0,0 l/m 2,7 km/h (1 Bft) N 360 17,7 C 29,6 C 2,4 km/h (1 Bft)
23.08.2012 13:05 27,5 C 53 % 0,0 l/m 4,0 km/h (1 Bft) W-SW 247 17,0 C 29,3 C 7,6 km/h (2 Bft)
23.08.2012 13:10 27,5 C 55 % 0,0 l/m 4,8 km/h (1 Bft) S-SW 202 17,6 C 28,9 C 7,4 km/h (2 Bft)
23.08.2012 13:15 27,2 C 53 % 0,0 l/m 5,1 km/h (1 Bft) W-NW 292 16,8 C 28,4 C 6,4 km/h (2 Bft)
23.08.2012 13:20 26,9 C 55 % 0,0 l/m 4,8 km/h (1 Bft) SW 225 17,1 C 28,2 C 4,7 km/h (1 Bft)
23.08.2012 13:25 26,9 C 57 % 0,0 l/m 4,0 km/h (1 Bft) W 270 17,6 C 28,0 C 4,5 km/h (1 Bft)
23.08.2012 13:30 26,9 C 57 % 0,0 l/m 4,7 km/h (1 Bft) W 270 17,6 C 27,4 C 10,1 km/h (2 Bft)
23.08.2012 13:35 26,7 C 58 % 0,0 l/m 5,0 km/h (1 Bft) S 180 17,7 C 26,8 C 9,2 km/h (2 Bft)
23.08.2012 13:40 27,3 C 55 % 0,0 l/m 4,5 km/h (1 Bft) W 270 17,4 C 26,5 C 7,6 km/h (2 Bft)
23.08.2012 13:45 27,0 C 58 % 0,0 l/m 5,3 km/h (1 Bft) W-SW 247 18,0 C 26,4 C 3,9 km/h (1 Bft)
23.08.2012 13:50 26,9 C 57 % 0,0 l/m 5,0 km/h (1 Bft) W-SW 247 17,6 C 26,8 C 4,8 km/h (1 Bft)
23.08.2012 13:55 26,6 C 58 % 0,0 l/m 4,5 km/h (1 Bft) W-SW 247 17,6 C 27,7 C 7,9 km/h (2 Bft)
23.08.2012 14:00 26,9 C 59 % 0,0 l/m 4,5 km/h (1 Bft) SO 135 18,2 C 28,0 C 3,7 km/h (1 Bft)
23.08.2012 14:05 26,7 C 59 % 0,0 l/m 4,5 km/h (1 Bft) W-NW 292 18,0 C 28,7 C 4,7 km/h (1 Bft)
23.08.2012 14:10 27,5 C 58 % 0,0 l/m 3,9 km/h (1 Bft) W-SW 247 18,5 C 29,0 C 3,9 km/h (1 Bft)
23.08.2012 14:15 27,3 C 58 % 0,0 l/m 3,4 km/h (1 Bft) O-SO 112 18,3 C 29,4 C 4,3 km/h (1 Bft)
23.08.2012 14:20 27,0 C 57 % 0,0 l/m 3,4 km/h (1 Bft) N-NW 337 17,7 C 29,7 C 6,3 km/h (2 Bft)
23.08.2012 14:25 27,1 C 58 % 0,0 l/m 3,5 km/h (1 Bft) W-NW 292 18,1 C 29,5 C 4,8 km/h (1 Bft)
23.08.2012 14:30 26,9 C 58 % 0,0 l/m 4,0 km/h (1 Bft) N-NW 337 17,9 C 29,3 C 2,4 km/h (1 Bft)
23.08.2012 14:35 27,8 C 57 % 0,0 l/m 4,5 km/h (1 Bft) W-SW 247 18,5 C 29,3 C 6,0 km/h (2 Bft)
23.08.2012 14:40 27,5 C 56 % 0,0 l/m 3,7 km/h (1 Bft) W-NW 292 17,9 C 29,4 C 1,9 km/h (1 Bft)
23.08.2012 14:45 27,5 C 57 % 0,0 l/m 3,7 km/h (1 Bft) N-NW 337 18,2 C 29,8 C 7,4 km/h (2 Bft)
23.08.2012 14:50 27,1 C 57 % 0,0 l/m 4,3 km/h (1 Bft) W-SW 247 17,8 C 29,6 C 6,4 km/h (2 Bft)
23.08.2012 14:55 26,8 C 56 % 0,0 l/m 4,5 km/h (1 Bft) N-NW 337 17,3 C 29,4 C 3,1 km/h (1 Bft)
23.08.2012 15:00 26,6 C 56 % 0,0 l/m 4,7 km/h (1 Bft) SW 225 17,1 C 29,1 C 7,1 km/h (2 Bft)
23.08.2012 15:05 26,8 C 58 % 0,0 l/m 4,3 km/h (1 Bft) W-NW 292 17,8 C 29,0 C 2,3 km/h (1 Bft)
23.08.2012 15:10 26,9 C 57 % 0,0 l/m 3,7 km/h (1 Bft) N 360 17,6 C 29,2 C 2,9 km/h (1 Bft)
23.08.2012 15:15 26,5 C 58 % 0,0 l/m 4,2 km/h (1 Bft) NW 315 17,5 C 29,0 C 3,9 km/h (1 Bft)
23.08.2012 15:20 26,9 C 57 % 0,0 l/m 4,2 km/h (1 Bft) W-NW 292 17,6 C 28,9 C 9,7 km/h (2 Bft)
23.08.2012 15:25 26,8 C 57 % 0,0 l/m 4,3 km/h (1 Bft) S 180 17,6 C 28,8 C 2,9 km/h (1 Bft)
23.08.2012 15:30 26,9 C 57 % 0,0 l/m 4,3 km/h (1 Bft) W-NW 292 17,6 C 29,0 C 5,5 km/h (1 Bft)
23.08.2012 15:35 26,9 C 56 % 0,0 l/m 4,2 km/h (1 Bft) W-NW 292 17,4 C 29,3 C 6,6 km/h (2 Bft)
23.08.2012 15:40 26,7 C 57 % 0,0 l/m 4,7 km/h (1 Bft) SO 135 17,5 C 28,8 C 2,7 km/h (1 Bft)
23.08.2012 15:45 26,9 C 56 % 0,0 l/m 4,2 km/h (1 Bft) O-SO 112 17,4 C 28,9 C 3,5 km/h (1 Bft)
23.08.2012 15:50 26,9 C 57 % 0,0 l/m 3,5 km/h (1 Bft) N-NW 337 17,6 C 29,0 C 2,3 km/h (1 Bft)
23.08.2012 15:55 26,6 C 57 % 0,0 l/m 2,6 km/h (1 Bft) W-NW 292 17,4 C 29,2 C 2,4 km/h (1 Bft)
23.08.2012 16:00 26,4 C 56 % 0,0 l/m 2,9 km/h (1 Bft) N-NW 337 16,9 C 29,2 C 3,2 km/h (1 Bft)
23.08.2012 16:05 27,2 C 58 % 0,0 l/m 2,9 km/h (1 Bft) N-NW 337 18,2 C 29,4 C 4,8 km/h (1 Bft)
23.08.2012 16:10 26,9 C 57 % 0,0 l/m 2,9 km/h (1 Bft) W-NW 292 17,6 C 29,6 C 3,7 km/h (1 Bft)
23.08.2012 16:15 26,9 C 56 % 0,0 l/m 4,3 km/h (1 Bft) S-SW 202 17,4 C 29,2 C 6,6 km/h (2 Bft)
23.08.2012 16:20 26,7 C 57 % 0,0 l/m 3,9 km/h (1 Bft) W-NW 292 17,5 C 29,1 C 0,0 km/h (0 Bft)
23.08.2012 16:25 26,4 C 59 % 0,0 l/m 3,1 km/h (1 Bft) W-SW 247 17,7 C 29,1 C 6,1 km/h (2 Bft)
23.08.2012 16:30 26,3 C 58 % 0,0 l/m 3,2 km/h (1 Bft) S 180 17,4 C 28,6 C 4,2 km/h (1 Bft)
23.08.2012 16:35 26,0 C 60 % 0,0 l/m 3,1 km/h (1 Bft) S 180 17,6 C 28,1 C 0,0 km/h (0 Bft)
23.08.2012 16:40 25,9 C 62 % 0,0 l/m 1,6 km/h (1 Bft) S-SO 157 18,0 C 27,8 C 1,6 km/h (1 Bft)
23.08.2012 16:45 25,4 C 63 % 0,0 l/m 1,0 km/h (0 Bft) W-SW 247 17,8 C 27,5 C 4,5 km/h (1 Bft)
23.08.2012 16:50 25,2 C 64 % 0,0 l/m 1,8 km/h (1 Bft) W-SW 247 17,9 C 27,2 C 3,2 km/h (1 Bft)
23.08.2012 16:55 25,2 C 65 % 0,0 l/m 2,6 km/h (1 Bft) W 270 18,1 C 26,7 C 0,0 km/h (0 Bft)
23.08.2012 17:00 25,1 C 65 % 0,0 l/m 2,7 km/h (1 Bft) W-SW 247 18,0 C 26,3 C 3,1 km/h (1 Bft)
23.08.2012 17:05 24,6 C 66 % 0,0 l/m 2,9 km/h (1 Bft) SO 135 17,8 C 25,7 C 2,1 km/h (1 Bft)
23.08.2012 17:10 24,4 C 68 % 0,0 l/m 2,7 km/h (1 Bft) S 180 18,1 C 25,3 C 2,4 km/h (1 Bft)
23.08.2012 17:15 24,0 C 68 % 0,0 l/m 1,4 km/h (1 Bft) O-SO 112 17,7 C 24,8 C 0,0 km/h (0 Bft)
23.08.2012 17:20 23,6 C 70 % 0,0 l/m 0,6 km/h (0 Bft) N-NO 22 17,8 C 24,9 C 0,0 km/h (0 Bft)
23.08.2012 17:25 23,2 C 72 % 0,0 l/m 0,2 km/h (0 Bft) N 360 17,9 C 24,5 C 0,0 km/h (0 Bft)
23.08.2012 17:30 23,2 C 72 % 0,0 l/m 0,2 km/h (0 Bft) N 360 17,9 C 24,3 C 0,0 km/h (0 Bft)
23.08.2012 17:35 22,8 C 74 % 0,0 l/m 0,0 km/h (0 Bft) O-SO 112 17,9 C 24,0 C 1,8 km/h (1 Bft)
23.08.2012 17:40 22,0 C 77 % 0,0 l/m 1,9 km/h (1 Bft) O-SO 112 17,8 C 23,3 C 16,3 km/h (3 Bft)
23.08.2012 17:45 18,4 C 83 % 1,4 l/m 7,4 km/h (2 Bft) N 360 15,5 C 19,3 C 22,7 km/h (4 Bft)
23.08.2012 17:50 17,7 C 85 % 0,7 l/m 7,1 km/h (2 Bft) N 360 15,1 C 18,3 C 8,0 km/h (2 Bft)
23.08.2012 17:55 17,6 C 87 % 0,0 l/m 2,7 km/h (1 Bft) O 90 15,4 C 17,7 C 0,0 km/h (0 Bft)
23.08.2012 18:00 17,6 C 88 % 0,0 l/m 2,6 km/h (1 Bft) NO 45 15,6 C 17,6 C 3,7 km/h (1 Bft)
23.08.2012 18:05 17,6 C 89 % 0,0 l/m 2,4 km/h (1 Bft) S-SO 157 15,8 C 17,4 C 11,7 km/h (2 Bft)
23.08.2012 18:10 17,3 C 88 % 0,0 l/m 6,8 km/h (2 Bft) S-SO 157 15,3 C 17,0 C 17,7 km/h (3 Bft)
23.08.2012 18:15 16,6 C 89 % 0,7 l/m 9,5 km/h (2 Bft) O-SO 112 14,8 C 15,1 C 11,3 km/h (2 Bft)
23.08.2012 18:20 16,4 C 89 % 0,0 l/m 9,3 km/h (2 Bft) O 90 14,6 C 14,6 C 7,2 km/h (2 Bft)
23.08.2012 18:25 16,2 C 90 % 0,7 l/m 9,7 km/h (2 Bft) O 90 14,6 C 14,1 C 12,4 km/h (3 Bft)
23.08.2012 18:30 16,3 C 90 % 0,7 l/m 8,9 km/h (2 Bft) SO 135 14,7 C 14,6 C 8,7 km/h (2 Bft)
23.08.2012 18:35 16,5 C 90 % 0,0 l/m 8,0 km/h (2 Bft) O-SO 112 14,9 C 15,3 C 7,9 km/h (2 Bft)
23.08.2012 18:40 16,6 C 90 % 0,0 l/m 6,9 km/h (2 Bft) O-NO 67 15,0 C 16,0 C 7,7 km/h (2 Bft)
23.08.2012 18:45 16,7 C 90 % 0,0 l/m 5,1 km/h (1 Bft) N-NO 22 15,0 C 16,4 C 4,3 km/h (1 Bft)
23.08.2012 18:50 16,6 C 90 % 0,7 l/m 3,5 km/h (1 Bft) N-NW 337 15,0 C 16,5 C 1,6 km/h (1 Bft)
23.08.2012 18:55 16,7 C 91 % 0,0 l/m 1,3 km/h (1 Bft) N-NW 337 15,2 C 16,5 C 2,4 km/h (1 Bft)
23.08.2012 19:00 16,7 C 91 % 0,0 l/m 2,1 km/h (1 Bft) NW 315 15,2 C 16,7 C 7,2 km/h (2 Bft)
23.08.2012 19:05 16,8 C 91 % 0,0 l/m 2,3 km/h (1 Bft) N-NW 337 15,3 C 17,1 C 1,8 km/h (1 Bft)
23.08.2012 19:10 17,1 C 91 % 0,0 l/m 1,8 km/h (1 Bft) W-NW 292 15,6 C 17,3 C 3,9 km/h (1 Bft)
23.08.2012 19:15 17,2 C 91 % 0,0 l/m 2,6 km/h (1 Bft) SO 135 15,7 C 18,4 C 0,0 km/h (0 Bft)
23.08.2012 19:20 17,1 C 91 % 0,0 l/m 2,6 km/h (1 Bft) W-SW 247 15,6 C 19,0 C 2,6 km/h (1 Bft)
23.08.2012 19:25 17,0 C 91 % 0,0 l/m 2,3 km/h (1 Bft) N 360 15,5 C 19,5 C 5,0 km/h (1 Bft)
23.08.2012 19:30 16,8 C 91 % 0,0 l/m 3,4 km/h (1 Bft) N-NO 22 15,3 C 19,3 C 3,2 km/h (1 Bft)
23.08.2012 19:35 16,4 C 91 % 0,0 l/m 3,4 km/h (1 Bft) N-NW 337 14,9 C 18,4 C 2,4 km/h (1 Bft)
23.08.2012 19:40 16,3 C 91 % 0,0 l/m 2,6 km/h (1 Bft) NW 315 14,8 C 17,8 C 0,0 km/h (0 Bft)
23.08.2012 19:45 16,3 C 91 % 0,0 l/m 1,1 km/h (1 Bft) N 360 14,8 C 17,2 C 3,2 km/h (1 Bft)
23.08.2012 19:50 16,3 C 92 % 0,0 l/m 1,0 km/h (0 Bft) W 270 15,0 C 17,2 C 2,7 km/h (1 Bft)
23.08.2012 19:55 16,3 C 92 % 0,0 l/m 1,1 km/h (1 Bft) W 270 15,0 C 17,1 C 1,6 km/h (1 Bft)
23.08.2012 20:00 16,3 C 92 % 0,0 l/m 0,8 km/h (0 Bft) NW 315 15,0 C 17,0 C 0,0 km/h (0 Bft)
23.08.2012 20:05 16,3 C 92 % 0,0 l/m 1,1 km/h (1 Bft) W-NW 292 15,0 C 16,8 C 4,0 km/h (1 Bft)
23.08.2012 20:10 16,4 C 92 % 0,0 l/m 2,1 km/h (1 Bft) N 360 15,1 C 16,6 C 2,9 km/h (1 Bft)
23.08.2012 20:15 16,3 C 92 % 0,0 l/m 2,7 km/h (1 Bft) N 360 15,0 C 16,4 C 3,9 km/h (1 Bft)
23.08.2012 20:20 16,3 C 92 % 0,0 l/m 3,4 km/h (1 Bft) N 360 15,0 C 16,4 C 3,9 km/h (1 Bft)
23.08.2012 20:25 16,1 C 92 % 0,0 l/m 2,6 km/h (1 Bft) N 360 14,8 C 16,3 C 0,0 km/h (0 Bft)
23.08.2012 20:30 16,0 C 92 % 0,0 l/m 1,1 km/h (1 Bft) S 180 14,7 C 16,2 C 0,0 km/h (0 Bft)
23.08.2012 20:35 15,9 C 93 % 0,0 l/m 0,5 km/h (0 Bft) N-NO 22 14,8 C 16,0 C 1,6 km/h (1 Bft)
23.08.2012 20:40 15,9 C 93 % 0,0 l/m 0,2 km/h (0 Bft) N-NO 22 14,8 C 15,9 C 0,0 km/h (0 Bft)
23.08.2012 20:45 16,0 C 92 % 0,0 l/m 0,0 km/h (0 Bft) NO 45 14,7 C 15,8 C 0,0 km/h (0 Bft)
23.08.2012 20:50 16,1 C 92 % 0,0 l/m 0,0 km/h (0 Bft) N-NO 22 14,8 C 15,8 C 0,0 km/h (0 Bft)
23.08.2012 20:55 16,1 C 92 % 0,0 l/m 0,0 km/h (0 Bft) N 360 14,8 C 15,8 C 0,0 km/h (0 Bft)
23.08.2012 21:00 16,1 C 92 % 0,0 l/m 0,0 km/h (0 Bft) NO 45 14,8 C 15,8 C 0,0 km/h (0 Bft)
23.08.2012 21:05 16,2 C 92 % 0,0 l/m 0,0 km/h (0 Bft) N 360 14,9 C 15,9 C 0,0 km/h (0 Bft)
23.08.2012 21:10 16,2 C 93 % 0,0 l/m 0,0 km/h (0 Bft) N-NW 337 15,1 C 15,9 C 0,0 km/h (0 Bft)
23.08.2012 21:15 16,1 C 93 % 0,0 l/m 0,0 km/h (0 Bft) O-SO 112 15,0 C 16,0 C 0,0 km/h (0 Bft)
23.08.2012 21:20 16,1 C 93 % 0,0 l/m 0,0 km/h (0 Bft) S-SO 157 15,0 C 15,9 C 0,0 km/h (0 Bft)
23.08.2012 21:25 16,1 C 93 % 0,0 l/m 0,0 km/h (0 Bft) W-SW 247 15,0 C 16,0 C 0,0 km/h (0 Bft)
23.08.2012 21:30 16,2 C 93 % 0,0 l/m 0,3 km/h (0 Bft) NO 45 15,1 C 16,0 C 1,9 km/h (1 Bft)
23.08.2012 21:35 16,5 C 93 % 0,0 l/m 0,8 km/h (0 Bft) S-SW 202 15,4 C 16,3 C 2,4 km/h (1 Bft)
23.08.2012 21:40 16,7 C 93 % 0,0 l/m 1,3 km/h (1 Bft) W-NW 292 15,6 C 16,4 C 1,6 km/h (1 Bft)
23.08.2012 21:45 16,7 C 93 % 0,0 l/m 1,3 km/h (1 Bft) NO 45 15,6 C 16,5 C 2,6 km/h (1 Bft)
23.08.2012 21:50 16,7 C 93 % 0,0 l/m 1,1 km/h (1 Bft) O-SO 112 15,6 C 16,6 C 1,8 km/h (1 Bft)
23.08.2012 21:55 16,7 C 93 % 0,0 l/m 0,8 km/h (0 Bft) N-NO 22 15,6 C 16,6 C 0,0 km/h (0 Bft)
23.08.2012 22:00 16,7 C 93 % 0,0 l/m 0,3 km/h (0 Bft) NO 45 15,6 C 16,6 C 0,0 km/h (0 Bft)
23.08.2012 22:05 16,7 C 93 % 0,0 l/m 0,2 km/h (0 Bft) W 270 15,6 C 16,6 C 0,0 km/h (0 Bft)
23.08.2012 22:10 16,6 C 93 % 0,0 l/m 0,2 km/h (0 Bft) SO 135 15,5 C 16,5 C 1,6 km/h (1 Bft)
23.08.2012 22:15 16,5 C 93 % 0,0 l/m 0,6 km/h (0 Bft) W-SW 247 15,4 C 16,4 C 0,0 km/h (0 Bft)
23.08.2012 22:20 16,6 C 93 % 0,0 l/m 0,6 km/h (0 Bft) W-SW 247 15,5 C 16,4 C 1,6 km/h (1 Bft)
23.08.2012 22:25 16,5 C 93 % 0,0 l/m 0,2 km/h (0 Bft) N 360 15,4 C 16,4 C 1,9 km/h (1 Bft)
23.08.2012 22:30 16,5 C 93 % 0,0 l/m 0,3 km/h (0 Bft) S-SW 202 15,4 C 16,3 C 0,0 km/h (0 Bft)
23.08.2012 22:35 16,4 C 93 % 0,0 l/m 0,2 km/h (0 Bft) N-NO 22 15,3 C 16,2 C 0,0 km/h (0 Bft)
23.08.2012 22:40 16,2 C 93 % 0,0 l/m 0,0 km/h (0 Bft) S 180 15,1 C 16,1 C 0,0 km/h (0 Bft)
23.08.2012 22:45 16,1 C 93 % 0,0 l/m 0,2 km/h (0 Bft) N-NW 337 15,0 C 15,9 C 0,0 km/h (0 Bft)
23.08.2012 22:50 15,9 C 94 % 0,0 l/m 0,2 km/h (0 Bft) S-SO 157 14,9 C 15,8 C 0,0 km/h (0 Bft)
23.08.2012 22:55 15,8 C 94 % 0,0 l/m 0,2 km/h (0 Bft) NO 45 14,8 C 15,6 C 0,0 km/h (0 Bft)
23.08.2012 23:00 15,6 C 94 % 0,0 l/m 0,2 km/h (0 Bft) N 360 14,6 C 15,4 C 0,0 km/h (0 Bft)
23.08.2012 23:05 15,6 C 94 % 0,0 l/m 1,0 km/h (0 Bft) O-SO 112 14,6 C 15,4 C 0,0 km/h (0 Bft)
23.08.2012 23:10 15,3 C 94 % 0,0 l/m 1,0 km/h (0 Bft) N-NO 22 14,3 C 15,2 C 0,0 km/h (0 Bft)
23.08.2012 23:15 15,4 C 94 % 0,0 l/m 0,0 km/h (0 Bft) N-NO 22 14,4 C 15,1 C 0,0 km/h (0 Bft)
23.08.2012 23:20 15,2 C 94 % 0,0 l/m 0,3 km/h (0 Bft) N-NW 337 14,2 C 15,1 C 2,3 km/h (1 Bft)
23.08.2012 23:25 15,0 C 94 % 0,0 l/m 0,5 km/h (0 Bft) N 360 14,0 C 14,9 C 1,8 km/h (1 Bft)
23.08.2012 23:30 15,1 C 94 % 0,0 l/m 0,8 km/h (0 Bft) N 360 14,1 C 14,8 C 0,0 km/h (0 Bft)
23.08.2012 23:35 15,1 C 94 % 0,0 l/m 0,6 km/h (0 Bft) N-NW 337 14,1 C 14,8 C 0,0 km/h (0 Bft)
23.08.2012 23:40 15,0 C 94 % 0,0 l/m 0,3 km/h (0 Bft) N-NW 337 14,0 C 14,8 C 0,0 km/h (0 Bft)
23.08.2012 23:45 14,8 C 94 % 0,0 l/m 0,2 km/h (0 Bft) N-NO 22 13,8 C 14,6 C 0,0 km/h (0 Bft)
23.08.2012 23:50 14,7 C 94 % 0,0 l/m 0,2 km/h (0 Bft) N-NW 337 13,7 C 14,5 C 0,0 km/h (0 Bft)
23.08.2012 23:55 14,8 C 94 % 0,0 l/m 0,0 km/h (0 Bft) N-NO 22 13,8 C 14,3 C 0,0 km/h (0 Bft)
_ Min-Zeit 23:50 11:40 - 23:55 - - 23:50 18:25 23:55
Minimum _ 14,7 C 49 % - 0,0 km/h (0 Bft) - - 13,7 C 14,1 C 0,0 km/h (0 Bft)
_ Max-Zeit 14:35 23:55 07:55 18:25 - - 10:30 11:45 17:45
Maximum _ 27,8 C 94 % 2,1 l/m 9,7 km/h
O (2 Bft)
- - 20,2 C 30,6 C 22,7 km/h
N (4 Bft)
Durchschnitt _ 19,7 C 81 % #8,9 l/m 2,1 km/h (1 Bft) N - 16,1 C 20,6 C 2,8 km/h (1 Bft)